Home   Weather   Kansas City   Past weeks
Flag for USA

Past Weather in Kansas City, Missouri, USA — Yesterday and Last 2 Weeks

Now
77 °F

Sunny.


Feels Like: 78 °F
Forecast: 81 / 61 °F
Wind: 8 mph from Northwest

Location: Kansas City Downtown Airport

Current Time: Jul 23, 2019 at 12:47:32 pm

Latest Report: Jul 23, 2019 at 11:54 am


Visibility: 10 mi

Pressure: 30.23 "Hg

Humidity: 44%

Dew Point: 53 °F

Location of Kansas CityLocation

Past Weather in Kansas City — Graph

°F

Kansas City Temperature Yesterday

Maximum temperature yesterday: 83 °F (at 3:54 pm)
Minimum temperature yesterday: 69 °F (at 5:54 am)
Average temperature yesterday: 76 °F

High & Low Weather Summary for the Past Weeks

 TemperatureHumidityPressure
High98 °F (Jul 20, 3:54 pm)93% (Jul 21, 3:23 am)30.25 "Hg (Jul 21, 3:23 am)
Low63 °F (Jul 23, 5:54 am)38% (Jul 22, 3:54 pm)29.70 "Hg (Jul 18, 5:54 pm)
Average82 °F64%29.93 "Hg
* Reported Jul 8 10:54 am — Jul 23 10:54 am, Kansas City. Weather by CustomWeather, © 2019

Note: Actual official high and low records may vary slightly from our data, if they occured in-between our weather recording intervals... More about our weather records

Advertising

Kansas City Weather History for the Previous 24 Hours

Scroll right to see more
 ConditionsComfort  
Time TempWeatherWind HumidityBarometerVisibility
10:54 am
Tue, Jul 23
76 °FPassing clouds.7 mph45%30.24 "Hg10 mi
9:54 am74 °FSunny.5 mph52%30.24 "Hg10 mi
8:54 am70 °FSunny.3 mph59%30.25 "Hg10 mi
7:54 am66 °FPassing clouds.No wind70%30.25 "Hg10 mi
6:54 am63 °FPassing clouds.3 mph78%30.24 "Hg10 mi
5:54 am63 °FPassing clouds.5 mph75%30.22 "Hg10 mi
4:54 am65 °FOvercast.7 mph73%30.21 "Hg10 mi
3:54 am65 °FClear.6 mph73%30.21 "Hg10 mi
2:54 am67 °FClear.No wind68%30.21 "Hg10 mi
1:54 am67 °FPassing clouds.5 mph66%30.21 "Hg10 mi
12:54 am69 °FClear.5 mph59%30.20 "Hg10 mi
11:54 pm
Mon, Jul 22
72 °FClear.9 mph52%30.19 "Hg10 mi
10:54 pm73 °FClear.9 mph51%30.16 "Hg10 mi
9:54 pm74 °FClear.12 mph50%30.15 "Hg10 mi
8:54 pm75 °FClear.9 mph50%30.13 "Hg10 mi
7:54 pm77 °FSunny.15 mph47%30.12 "Hg10 mi
6:54 pm80 °FPassing clouds.18 mph44%30.11 "Hg10 mi
5:54 pm81 °FPassing clouds.12 mph44%30.11 "Hg10 mi
4:54 pm82 °FScattered clouds.18 mph40%30.11 "Hg10 mi
3:54 pm83 °FPartly sunny.16 mph38%30.11 "Hg10 mi
2:54 pm82 °FPartly sunny.17 mph44%30.11 "Hg10 mi
1:54 pm82 °FScattered clouds.17 mph48%30.11 "Hg10 mi
12:54 pm81 °FScattered clouds.16 mph51%30.12 "Hg10 mi
Weather by CustomWeather, © 2019

See weather overview